Wind_Speed
18 18 18 18 19 19 19 19 19 20 19 19 20 19 20 20 21 21 22 22 21 22 22 21 21 21 22 22 21 20 20 21 21 21 21 21 21 21
20 20 20 20 21 21 22 22 22 22 21 21 20 20 21 22 22 22 22 22 22 22 23 23 24 24 23 23 24 23 23 23 23 22 22 22 22 23
21 22 22 22 23 23 24 24 23 23 23 23 22 22 22 23 23 23 23 23 24 24 24 25 26 26 24 25 25 24 24 24 24 24 23 23 23 24
23 23 24 24 25 25 25 25 25 25 25 25 25 25 25 25 25 25 24 24 25 25 26 27 27 27 26 26 26 26 26 26 26 25 25 25 25 24
24 24 25 25 26 26 26 26 27 27 27 27 26 27 27 27 27 27 27 26 26 27 27 27 27 27 28 28 28 27 27 27 26 26 26 26 26 25
25 25 25 26 26 26 26 26 27 28 28 28 28 28 29 29 29 29 29 29 28 28 28 28 28 29 29 29 30 29 28 28 28 27 27 27 26 25
27 26 26 26 26 26 27 27 28 28 29 29 30 30 30 30 32 31 31 31 30 30 30 30 29 29 29 30 30 30 30 29 29 28 28 28 27 26
28 28 28 28 28 28 29 29 29 30 30 31 31 32 32 32 33 33 33 32 31 31 30 29 30 29 29 31 30 29 30 31 30 30 29 28 28 27
30 30 30 30 30 30 30 31 31 31 32 32 32 33 33 33 33 33 34 33 32 31 31 30 30 30 30 31 31 31 32 32 32 32 31 30 29 29
31 31 31 31 31 31 32 32 32 33 33 33 33 33 33 33 34 33 33 33 32 31 31 30 31 32 32 32 31 32 32 33 33 33 32 32 31 30
32 32 32 32 32 32 32 32 33 34 34 34 34 34 34 34 34 34 34 34 33 33 32 31 31 31 32 32 32 33 34 34 33 34 33 33 32 32
33 34 34 34 33 33 33 33 33 33 33 33 33 34 34 34 35 35 35 35 35 33 32 32 31 31 32 32 33 33 34 34 34 34 34 34 33 33
34 34 34 34 34 34 33 33 33 33 34 34 34 35 35 36 36 36 37 36 36 35 34 34 32 32 32 32 33 32 33 33 33 33 34 34 34 34
34 35 34 34 34 34 34 34 34 34 34 34 34 35 35 36 36 36 37 37 36 35 35 35 34 34 33 32 31 31 31 32 32 32 32 32 32 32
34 35 34 34 34 35 35 35 35 35 34 34 34 34 35 35 35 35 35 36 35 35 35 35 34 33 33 32 32 31 31 31 32 32 32 32 32 32
35 34 34 34 34 33 33 33 33 33 33 34 34 34 34 34 34 34 34 33 33 33 33 33 33 32 31 32 31 31 30 30 29 30 30 31 30 31
35 35 34 34 33 31 31 31 31 31 32 32 32 32 32 32 32 32 32 31 31 31 30 30 31 31 31 30 30 30 30 30 30 30 30 30 30 30
34 33 33 31 31 30 30 30 30 30 30 30 30 30 30 30 30 30 30 30 29 29 29 29 29 29 29 28 28 28 28 27 28 29 29 29 29 30
33 32 31 30 30 29 29 29 29 28 28 28 28 28 28 28 29 29 29 29 29 29 29 28 28 29 29 28 27 28 28 28 28 27 27 28 28 29
31 30 30 29 28 27 27 27 27 27 27 27 26 26 26 27 28 28 27 27 27 28 28 28 28 28 28 28 27 26 27 28 28 27 27 27 27 28
29 29 29 28 27 26 26 26 26 25 24 24 23 24 24 24 24 25 25 25 25 25 25 25 26 27 27 28 27 27 27 27 27 27 27 28 28 28
28 27 27 27 26 26 25 24 24 23 23 23 23 23 23 23 23 23 23 24 24 24 25 25 26 26 27 27 27 27 27 27 27 27 27 27 27 27
27 27 26 26 25 24 24 23 23 22 23 23 23 22 22 22 22 22 23 23 23 23 23 24 25 25 25 25 25 25 25 25 26 26 26 26 26 26
Wind_Direction
294 292 291 290 290 289 287 286 285 284 281 279 278 277 272 270 268 267 265 262 260 261 260 257 259 261 260 260 261 261 261 263 263 262 262 263 265 267
292 290 289 287 287 287 285 283 282 281 280 278 278 277 273 270 271 269 269 267 263 264 261 258 259 260 260 261 261 262 262 263 262 263 262 264 268 270
291 289 287 285 284 284 283 282 281 279 276 277 276 276 276 274 271 271 272 271 269 266 264 263 260 259 259 259 260 261 261 263 263 264 265 266 268 270
291 289 288 286 284 283 282 281 280 279 276 275 275 274 274 273 271 270 271 270 269 266 267 266 263 260 260 260 260 261 262 262 263 265 267 268 269 269
291 290 288 287 285 283 282 281 279 279 278 276 276 275 274 273 272 272 272 270 269 268 267 267 265 263 262 261 261 261 262 264 265 265 266 268 268 267
292 291 289 287 285 284 282 281 281 280 278 276 275 275 274 273 273 273 273 273 271 269 268 267 266 264 263 262 262 262 262 264 265 266 266 267 267 266
293 292 291 289 287 285 283 281 281 280 279 277 277 276 275 274 274 274 273 273 271 270 270 269 267 263 261 262 261 261 262 262 264 264 264 265 265 265
291 290 290 289 287 286 284 283 281 280 279 278 277 276 276 275 275 274 273 273 270 267 267 267 265 262 261 263 261 260 260 261 262 262 262 263 263 264
290 289 288 288 287 286 284 282 281 280 278 277 277 276 276 276 275 275 274 273 270 266 263 264 263 262 262 261 259 259 259 260 261 262 261 262 261 261
291 291 290 289 288 286 284 282 281 279 278 277 276 276 276 275 275 275 274 273 270 267 265 264 263 263 264 262 260 259 260 260 261 262 260 260 260 260
293 292 291 290 288 287 285 283 281 280 278 277 276 275 274 273 274 274 274 273 272 270 267 265 264 264 263 262 262 261 260 261 261 261 259 258 258 258
294 293 292 291 289 288 286 283 282 280 278 278 277 275 274 273 273 273 273 272 272 270 268 265 263 263 263 264 264 262 261 261 261 261 259 257 258 258
296 294 293 291 288 287 285 284 282 280 278 277 276 275 275 274 274 273 272 271 271 270 268 266 263 263 264 264 263 262 261 261 260 259 257 257 257 258
296 294 292 290 287 285 284 283 282 280 278 277 276 276 275 275 275 273 272 270 270 270 267 265 265 266 265 265 264 261 261 262 262 261 258 257 257 256
297 296 293 291 288 286 284 282 281 280 278 277 277 276 276 276 275 274 272 271 270 269 266 264 265 266 264 264 263 263 263 264 264 262 259 259 260 258
300 299 296 292 290 289 287 284 282 281 280 279 278 276 275 275 274 274 273 271 270 268 264 262 263 266 265 263 261 261 261 261 261 259 258 257 257 256
300 299 297 295 293 292 291 287 284 282 281 281 279 277 276 275 274 274 272 271 270 267 265 263 263 263 262 261 260 260 259 259 258 257 256 255 254 254
300 298 298 296 294 293 292 291 289 285 284 282 279 277 277 276 275 275 273 270 268 265 263 262 261 261 261 261 261 261 260 259 257 257 258 256 254 253
300 300 300 299 297 295 293 291 290 288 285 283 279 277 276 277 277 275 273 269 266 264 261 261 261 260 259 259 258 259 260 259 258 258 258 257 257 254
301 301 300 300 300 297 295 292 290 288 287 284 281 280 280 278 277 275 273 269 266 263 261 259 258 259 258 257 257 258 259 259 258 259 260 259 259 258
300 300 301 300 300 299 297 294 292 290 288 287 286 285 283 281 278 275 272 269 265 262 260 258 257 258 258 258 258 258 258 258 257 257 258 258 259 258
300 300 301 299 298 299 298 296 295 292 290 289 289 288 286 282 279 277 273 269 266 263 260 257 256 257 257 258 259 259 258 257 256 256 256 256 257 256
305 303 303 301 299 299 297 295 294 294 293 292 291 288 286 284 281 278 273 270 267 263 260 258 256 257 257 258 259 259 259 258 258 257 255 255 254 253
Height
5845 5844 5842 5841 5840 5838 5837 5836 5835 5834 5833 5832 5831 5830 5829 5829 5829 5829 5829 5829 5830 5830 5831 5831 5832 5832 5833 5833 5834 5834 5835 5835 5835 5836 5836 5837 5837 5837
5840 5839 5837 5836 5834 5833 5832 5830 5829 5829 5828 5827 5826 5824 5824 5824 5823 5823 5823 5823 5823 5824 5824 5825 5826 5826 5827 5828 5828 5829 5829 5829 5830 5830 5831 5831 5831 5831
5834 5833 5831 5830 5828 5827 5826 5824 5823 5822 5822 5821 5820 5819 5818 5818 5818 5817 5817 5817 5817 5817 5818 5818 5819 5819 5820 5821 5821 5822 5823 5823 5823 5824 5824 5824 5825 5825
5828 5826 5825 5823 5822 5820 5819 5818 5817 5815 5815 5814 5813 5812 5812 5812 5811 5811 5810 5810 5810 5811 5811 5811 5811 5812 5813 5813 5814 5815 5815 5816 5816 5817 5817 5818 5818 5818
5821 5819 5818 5816 5815 5813 5812 5810 5809 5808 5807 5807 5806 5805 5805 5804 5804 5803 5803 5803 5803 5803 5803 5804 5804 5804 5805 5805 5806 5807 5808 5808 5809 5810 5810 5810 5810 5811
5814 5812 5810 5809 5807 5805 5804 5803 5801 5800 5799 5798 5798 5797 5797 5796 5795 5795 5795 5795 5795 5795 5795 5795 5795 5796 5796 5797 5798 5799 5799 5800 5801 5802 5802 5803 5803 5803
5807 5805 5803 5801 5799 5797 5796 5795 5793 5792 5791 5790 5789 5789 5788 5787 5787 5787 5786 5786 5786 5786 5786 5786 5787 5787 5787 5788 5789 5790 5791 5792 5793 5793 5794 5795 5795 5796
5799 5797 5795 5793 5791 5789 5787 5786 5784 5783 5782 5781 5781 5780 5779 5778 5778 5777 5777 5777 5777 5777 5777 5778 5778 5778 5779 5779 5780 5781 5782 5783 5784 5785 5786 5787 5787 5788
5791 5788 5786 5784 5782 5780 5778 5776 5775 5774 5772 5772 5771 5770 5770 5769 5768 5768 5767 5767 5767 5767 5767 5768 5768 5769 5769 5769 5770 5771 5772 5773 5775 5776 5777 5778 5779 5780
5782 5780 5777 5775 5772 5770 5768 5766 5765 5764 5762 5762 5761 5761 5760 5759 5758 5758 5757 5757 5757 5757 5757 5757 5758 5758 5759 5760 5761 5762 5763 5764 5765 5766 5767 5769 5770 5771
5773 5770 5768 5765 5763 5760 5758 5756 5755 5753 5752 5751 5751 5750 5750 5749 5748 5748 5748 5747 5747 5747 5747 5747 5747 5748 5749 5750 5750 5752 5753 5754 5755 5756 5758 5759 5760 5761
5763 5760 5757 5755 5752 5750 5748 5746 5744 5743 5741 5741 5740 5740 5739 5739 5738 5737 5737 5737 5737 5738 5737 5736 5737 5738 5738 5739 5740 5741 5742 5744 5745 5746 5747 5749 5750 5752
5753 5750 5746 5743 5741 5739 5737 5736 5734 5732 5731 5730 5729 5729 5728 5728 5727 5727 5726 5726 5726 5727 5727 5726 5726 5727 5728 5729 5730 5731 5732 5733 5734 5736 5737 5739 5740 5742
5743 5739 5736 5732 5730 5728 5726 5725 5723 5722 5720 5719 5718 5717 5717 5716 5716 5715 5715 5715 5715 5715 5716 5716 5716 5717 5717 5718 5719 5720 5721 5723 5724 5726 5727 5728 5730 5732
5732 5728 5724 5721 5719 5717 5715 5713 5712 5710 5709 5708 5707 5706 5705 5705 5704 5704 5704 5704 5704 5704 5704 5705 5706 5706 5707 5708 5709 5710 5711 5712 5714 5715 5717 5718 5720 5722
5722 5718 5714 5711 5708 5705 5703 5702 5700 5699 5698 5697 5696 5695 5694 5693 5693 5693 5692 5692 5693 5693 5693 5694 5695 5696 5696 5697 5699 5700 5701 5703 5704 5705 5706 5708 5710 5711
5711 5708 5704 5701 5698 5695 5693 5691 5690 5689 5687 5686 5685 5684 5683 5682 5682 5682 5682 5682 5682 5682 5683 5684 5684 5685 5686 5688 5689 5690 5691 5693 5694 5695 5696 5698 5700 5702
5702 5698 5695 5691 5689 5686 5684 5682 5680 5679 5677 5676 5674 5674 5673 5672 5672 5672 5671 5671 5672 5672 5673 5674 5675 5676 5677 5678 5680 5681 5682 5683 5684 5686 5687 5688 5690 5692
5693 5689 5686 5683 5680 5677 5675 5673 5671 5669 5668 5666 5665 5664 5663 5662 5662 5661 5661 5661 5662 5663 5663 5664 5665 5666 5668 5669 5671 5672 5673 5674 5675 5676 5678 5679 5681 5682
5684 5681 5678 5675 5672 5669 5667 5664 5662 5660 5658 5657 5656 5655 5654 5653 5652 5652 5652 5652 5652 5653 5654 5655 5656 5657 5658 5660 5661 5663 5664 5665 5666 5667 5669 5670 5672 5673
5676 5672 5669 5667 5664 5661 5659 5656 5654 5652 5650 5649 5647 5646 5645 5644 5643 5643 5643 5643 5643 5644 5645 5646 5647 5648 5649 5651 5652 5654 5655 5656 5657 5658 5660 5661 5662 5664
5667 5664 5661 5659 5656 5654 5651 5649 5647 5645 5643 5641 5640 5638 5637 5636 5635 5635 5635 5635 5635 5635 5636 5637 5638 5640 5641 5642 5643 5644 5645 5646 5648 5649 5650 5652 5653 5655
5660 5657 5654 5651 5649 5646 5644 5642 5640 5638 5636 5634 5632 5631 5630 5629 5628 5627 5627 5626 5626 5627 5627 5628 5629 5631 5632 5633 5634 5636 5636 5637 5639 5640 5642 5643 5645 5646